Powrót do katalogu

ONEWEB-0717

AktywnyŁącznośćPO
NORAD 55178·PAYLOAD·🇬🇧 United Kingdom

Wystrzelony Jan 10, 2023 z Cape Canaveral Space Force Station

Loading…

Następne Przeloty (najbliższe 24 godziny)

TLE

ŚwieżeSource: CelesTrak SupGP

Epoka: Sep 14, 2026, 23:02 UTC

1 55178C 23004AQ  26257.95986528 -.00000173  00000+0 -44579-3 0  2570
2 55178  87.9207 348.0357 0001789 120.2969 349.6337 13.17650724    17

Śledź ONEWEB-0717 w czasie rzeczywistym z AllMySat

Download on the App Store